| time (UTC) | temp C | wind direction | speed KPH | gust KPH | rain 1hr cm | rain 24hr cm | rain mn cm | humidity % | barometer mb |
| 20260504151021 | 10 | 211 | 6.4 | 24.1 | 0.00 | 0.00 | 0.00 | 56 | 1005.8 |
| 20260504150519 | 10 | 167 | 6.4 | 29.0 | 0.00 | 0.00 | 0.00 | 56 | 1005.7 |
| 20260504141026 | 10 | 148 | 8.0 | 30.6 | 0.00 | 0.00 | 0.00 | 56 | 1005.5 |
| 20260504140520 | 10 | 161 | 9.7 | 22.5 | 0.00 | 0.00 | 0.00 | 55 | 1005.4 |
| 20260504130520 | 8 | 192 | 9.7 | 32.2 | 0.00 | 0.00 | 0.00 | 58 | 1004.9 |
| 20260504110520 | 6 | 138 | 6.4 | 20.9 | 0.00 | 0.00 | 0.00 | 68 | 1005.7 |
| 20260504100523 | 5 | 159 | 3.2 | 19.3 | 0.00 | 0.00 | 0.00 | 79 | 1006.1 |
| 20260504081539 | 4 | 164 | 1.6 | 14.5 | 0.00 | 0.00 | 0.00 | 86 | 1005.9 |
| 20260504081020 | 4 | 241 | 1.6 | 14.5 | 0.00 | 0.00 | 0.00 | 86 | 1005.7 |
| 20260504080524 | 4 | 275 | 3.2 | 32.2 | 0.00 | 0.00 | 0.00 | 86 | 1005.7 |
| 20260504050520 | 3 | 178 | 3.2 | 24.1 | 0.00 | 0.00 | 0.00 | 67 | 1006.1 |
| 20260504045520 | 3 | 169 | 4.8 | 20.9 | 0.00 | 0.00 | 0.00 | 64 | 1006.1 |
| 20260504045025 | 3 | 128 | 6.4 | 27.4 | 0.00 | 0.00 | 0.00 | 63 | 1006.2 |
| 20260504044536 | 3 | 171 | 3.2 | 27.4 | 0.00 | 0.00 | 0.00 | 62 | 1006.5 |
| 20260504044021 | 3 | 185 | 3.2 | 14.5 | 0.00 | 0.00 | 0.00 | 60 | 1006.5 |
| 20260504043520 | 3 | 154 | 4.8 | 27.4 | 0.00 | 0.00 | 0.00 | 60 | 1006.5 |
| 20260504043046 | 3 | 174 | 3.2 | 27.4 | 0.00 | 0.00 | 0.00 | 60 | 1006.5 |
| 20260504042521 | 3 | 166 | 4.8 | 16.1 | 0.00 | 0.00 | 0.00 | 58 | 1006.5 |
| 20260504042020 | 3 | 173 | 4.8 | 25.7 | 0.00 | 0.00 | 0.00 | 57 | 1006.5 |
| 20260504041536 | 3 | 156 | 6.4 | 25.7 | 0.00 | 0.00 | 0.00 | 56 | 1006.6 |
| 20260504041020 | 3 | 159 | 4.8 | 22.5 | 0.00 | 0.00 | 0.00 | 55 | 1006.5 |
| 20260504040518 | 3 | 137 | 6.4 | 22.5 | 0.00 | 0.00 | 0.00 | 54 | 1006.5 |
| 20260504040034 | 3 | 173 | 4.8 | 22.5 | 0.00 | 0.00 | 0.00 | 54 | 1006.5 |
| 20260504035520 | 3 | 160 | 4.8 | 14.5 | 0.00 | 0.00 | 0.00 | 53 | 1006.5 |
| 20260504035019 | 3 | 167 | 4.8 | 14.5 | 0.00 | 0.00 | 0.00 | 54 | 1006.4 |
| 20260504034547 | 3 | 183 | 3.2 | 14.5 | 0.00 | 0.00 | 0.00 | 53 | 1006.5 |
| 20260504034022 | 3 | 265 | 4.8 | 12.9 | 0.00 | 0.00 | 0.00 | 53 | 1006.6 |
| 20260504033521 | 3 | 0 | 1.6 | 16.1 | 0.00 | 0.00 | 0.00 | 52 | 1006.7 |
| 20260504033037 | 3 | 168 | 3.2 | 30.6 | 0.00 | 0.00 | 0.00 | 52 | 1006.6 |
| 20260504032522 | 3 | 227 | 3.2 | 30.6 | 0.00 | 0.00 | 0.00 | 52 | 1006.6 |
| 20260504032021 | 3 | 162 | 1.6 | 16.1 | 0.00 | 0.00 | 0.00 | 51 | 1006.6 |
| 20260504031546 | 3 | 36 | 3.2 | 14.5 | 0.00 | 0.00 | 0.00 | 51 | 1006.5 |
| 20260504031020 | 3 | 261 | 4.8 | 24.1 | 0.00 | 0.00 | 0.00 | 52 | 1006.5 |
| 20260504030519 | 3 | 205 | 3.2 | 24.1 | 0.00 | 0.00 | 0.00 | 52 | 1006.6 |
| 20260504030050 | 3 | 237 | 3.2 | 22.5 | 0.00 | 0.00 | 0.00 | 51 | 1006.5 |
| 20260504025522 | 3 | 206 | 4.8 | 22.5 | 0.00 | 0.00 | 0.00 | 51 | 1006.6 |
| 20260504025024 | 3 | 237 | 4.8 | 22.5 | 0.00 | 0.00 | 0.00 | 51 | 1006.5 |
| 20260504024536 | 3 | 250 | 8.0 | 22.5 | 0.00 | 0.00 | 0.00 | 51 | 1006.6 |
| 20260504024019 | 3 | 198 | 4.8 | 19.3 | 0.00 | 0.00 | 0.00 | 51 | 1006.6 |
| 20260504023518 | 3 | 168 | 4.8 | 29.0 | 0.00 | 0.00 | 0.00 | 51 | 1006.5 |
| 20260504023035 | 3 | 175 | 4.8 | 29.0 | 0.00 | 0.00 | 0.00 | 50 | 1006.6 |
| 20260504022518 | 3 | 175 | 6.4 | 24.1 | 0.00 | 0.00 | 0.00 | 51 | 1006.6 |
| 20260504022023 | 3 | 163 | 4.8 | 24.1 | 0.00 | 0.00 | 0.00 | 51 | 1006.7 |
| 20260504021545 | 3 | 207 | 4.8 | 20.9 | 0.00 | 0.00 | 0.00 | 51 | 1006.7 |
| 20260504021020 | 3 | 173 | 3.2 | 17.7 | 0.00 | 0.00 | 0.00 | 52 | 1006.6 |
| 20260504020522 | 3 | 224 | 4.8 | 19.3 | 0.00 | 0.00 | 0.00 | 53 | 1006.6 |
| 20260504020038 | 3 | 180 | 3.2 | 19.3 | 0.00 | 0.00 | 0.00 | 53 | 1006.6 |
| 20260504015522 | 3 | 229 | 3.2 | 17.7 | 0.00 | 0.00 | 0.00 | 55 | 1006.7 |
| 20260504015022 | 3 | 192 | 3.2 | 11.3 | 0.00 | 0.00 | 0.00 | 56 | 1006.6 |
| 20260504014536 | 3 | 186 | 1.6 | 8.0 | 0.00 | 0.00 | 0.00 | 56 | 1006.7 |
| 20260504014019 | 2 | 156 | 1.6 | 8.0 | 0.00 | 0.00 | 0.00 | 57 | 1006.7 |
| 20260504013521 | 2 | 238 | 0.0 | 4.8 | 0.00 | 0.00 | 0.00 | 57 | 1006.6 |
| 20260504013038 | 2 | 0 | 0.0 | 4.8 | 0.00 | 0.00 | 0.00 | 57 | 1006.7 |
| 20260504012522 | 2 | 0 | 0.0 | 4.8 | 0.00 | 0.00 | 0.00 | 56 | 1006.6 |
| 20260504012021 | 3 | 0 | 0.0 | 3.2 | 0.00 | 0.00 | 0.00 | 56 | 1006.6 |
| 20260504011535 | 3 | 0 | 0.0 | 3.2 | 0.00 | 0.00 | 0.00 | 56 | 1006.5 |
| 20260504011025 | 3 | 234 | 0.0 | 6.4 | 0.00 | 0.00 | 0.00 | 55 | 1006.5 |
| 20260504010522 | 3 | 0 | 0.0 | 11.3 | 0.00 | 0.00 | 0.00 | 56 | 1006.4 |
| 20260504010050 | 3 | 0 | 1.6 | 11.3 | 0.00 | 0.00 | 0.00 | 55 | 1006.4 |
| 20260504005522 | 3 | 76 | 1.6 | 8.0 | 0.00 | 0.00 | 0.00 | 54 | 1006.3 |
| 20260504005022 | 3 | 0 | 1.6 | 8.0 | 0.00 | 0.00 | 0.00 | 55 | 1006.2 |
| 20260504004542 | 3 | 236 | 0.0 | 11.3 | 0.00 | 0.00 | 0.00 | 56 | 1006.2 |
| 20260504004024 | 3 | 233 | 0.0 | 11.3 | 0.00 | 0.00 | 0.00 | 55 | 1006.1 |
| 20260504003522 | 3 | 194 | 1.6 | 9.7 | 0.00 | 0.00 | 0.00 | 56 | 1006.0 |
| 20260504003036 | 3 | 313 | 1.6 | 9.7 | 0.00 | 0.00 | 0.00 | 56 | 1005.9 |
| 20260504002523 | 3 | 0 | 0.0 | 9.7 | 0.00 | 0.00 | 0.00 | 55 | 1006.0 |
| 20260504002020 | 3 | 299 | 1.6 | 9.7 | 0.00 | 0.00 | 0.00 | 56 | 1006.0 |
| 20260504001539 | 3 | 277 | 1.6 | 4.8 | 0.00 | 0.00 | 0.00 | 55 | 1005.9 |
| 20260504001022 | 3 | 277 | 1.6 | 4.8 | 0.00 | 0.00 | 0.00 | 56 | 1005.9 |
| 20260504000523 | 3 | 0 | 0.0 | 4.8 | 0.00 | 0.00 | 0.00 | 55 | 1005.9 |
| 20260504000037 | 3 | 272 | 0.0 | 4.8 | 0.00 | 0.00 | 0.00 | 55 | 1005.8 |
| 20260503235522 | 3 | 254 | 1.6 | 12.9 | 0.00 | 0.00 | 0.00 | 54 | 1005.7 |
| 20260503235018 | 3 | 253 | 0.0 | 12.9 | 0.00 | 0.00 | 0.00 | 55 | 1005.7 |
| 20260503234539 | 4 | 246 | 0.0 | 6.4 | 0.00 | 0.00 | 0.00 | 54 | 1005.7 |
| 20260503234020 | 4 | 217 | 1.6 | 11.3 | 0.00 | 0.00 | 0.00 | 54 | 1005.7 |
| 20260503233523 | 4 | 215 | 4.8 | 11.3 | 0.00 | 0.00 | 0.00 | 53 | 1005.6 |
| 20260503233038 | 4 | 297 | 1.6 | 8.0 | 0.00 | 0.00 | 0.00 | 54 | 1005.6 |
| 20260503232522 | 4 | 151 | 0.0 | 8.0 | 0.00 | 0.00 | 0.00 | 53 | 1005.7 |
| 20260503232021 | 4 | 150 | 1.6 | 6.4 | 0.00 | 0.00 | 0.00 | 53 | 1005.6 |
| 20260503231536 | 4 | 0 | 0.0 | 11.3 | 0.00 | 0.00 | 0.00 | 53 | 1005.5 |
| 20260503231022 | 5 | 0 | 1.6 | 11.3 | 0.00 | 0.00 | 0.00 | 55 | 1005.5 |
| 20260503230519 | 5 | 146 | 0.0 | 11.3 | 0.00 | 0.00 | 0.00 | 54 | 1005.5 |
| 20260503230050 | 5 | 0 | 1.6 | 11.3 | 0.00 | 0.00 | 0.00 | 54 | 1005.4 |
| 20260503225519 | 5 | 251 | 1.6 | 8.0 | 0.00 | 0.00 | 0.00 | 54 | 1005.5 |
| 20260503225022 | 5 | 183 | 0.0 | 11.3 | 0.00 | 0.00 | 0.00 | 55 | 1005.6 |
| 20260503224536 | 5 | 255 | 4.8 | 11.3 | 0.00 | 0.00 | 0.00 | 54 | 1005.6 |
| 20260503224020 | 5 | 167 | 1.6 | 16.1 | 0.00 | 0.00 | 0.00 | 54 | 1005.6 |
| 20260503223526 | 5 | 234 | 3.2 | 16.1 | 0.00 | 0.00 | 0.00 | 53 | 1005.6 |
| 20260503223038 | 5 | 223 | 6.4 | 16.1 | 0.00 | 0.00 | 0.00 | 54 | 1005.6 |
| 20260503222518 | 5 | 158 | 1.6 | 14.5 | 0.00 | 0.00 | 0.00 | 54 | 1005.6 |
| 20260503222019 | 5 | 211 | 1.6 | 19.3 | 0.00 | 0.00 | 0.00 | 55 | 1005.6 |
| 20260503221541 | 5 | 237 | 1.6 | 19.3 | 0.00 | 0.00 | 0.00 | 55 | 1005.5 |
| 20260503221021 | 5 | 0 | 3.2 | 11.3 | 0.00 | 0.00 | 0.00 | 54 | 1005.5 |
| 20260503220518 | 5 | 255 | 1.6 | 11.3 | 0.00 | 0.00 | 0.00 | 55 | 1005.6 |
| 20260503220037 | 5 | 256 | 3.2 | 11.3 | 0.00 | 0.00 | 0.00 | 56 | 1005.5 |
| 20260503215519 | 4 | 181 | 0.0 | 11.3 | 0.00 | 0.00 | 0.00 | 56 | 1005.5 |
| 20260503215022 | 4 | 0 | 1.6 | 16.1 | 0.00 | 0.00 | 0.00 | 55 | 1005.4 |
| 20260503214551 | 5 | 150 | 1.6 | 16.1 | 0.00 | 0.00 | 0.00 | 55 | 1005.4 |
| 20260503214020 | 5 | 192 | 3.2 | 25.7 | 0.00 | 0.00 | 0.00 | 54 | 1005.4 |
| 20260503213520 | 5 | 184 | 4.8 | 25.7 | 0.00 | 0.00 | 0.00 | 55 | 1005.5 |
| 20260503213036 | 5 | 175 | 1.6 | 17.7 | 0.00 | 0.00 | 0.00 | 55 | 1005.4 |
| 20260503212520 | 5 | 151 | 3.2 | 32.2 | 0.00 | 0.00 | 0.00 | 54 | 1005.4 |
| 20260503212019 | 5 | 194 | 6.4 | 32.2 | 0.00 | 0.00 | 0.00 | 54 | 1005.3 |
| 20260503211534 | 5 | 153 | 6.4 | 22.5 | 0.00 | 0.00 | 0.00 | 53 | 1005.4 |
| 20260503211020 | 5 | 258 | 3.2 | 16.1 | 0.00 | 0.00 | 0.00 | 54 | 1005.2 |
| 20260503210520 | 5 | 242 | 3.2 | 17.7 | 0.00 | 0.00 | 0.00 | 54 | 1005.4 |
| 20260503210035 | 5 | 225 | 4.8 | 17.7 | 0.00 | 0.00 | 0.00 | 53 | 1005.3 |
| 20260503205519 | 5 | 183 | 1.6 | 24.1 | 0.00 | 0.00 | 0.00 | 54 | 1005.3 |
| 20260503205024 | 5 | 291 | 1.6 | 27.4 | 0.00 | 0.00 | 0.00 | 54 | 1005.4 |
| 20260503204542 | 5 | 240 | 8.0 | 27.4 | 0.00 | 0.00 | 0.00 | 54 | 1005.2 |
| 20260503204020 | 5 | 265 | 1.6 | 11.3 | 0.00 | 0.00 | 0.00 | 55 | 1005.2 |
| 20260503203523 | 5 | 0 | 1.6 | 17.7 | 0.00 | 0.00 | 0.00 | 54 | 1005.3 |
| 20260503203041 | 5 | 153 | 3.2 | 20.9 | 0.00 | 0.00 | 0.00 | 54 | 1005.2 |
| 20260503202526 | 5 | 264 | 6.4 | 20.9 | 0.00 | 0.00 | 0.00 | 53 | 1005.2 |
| 20260503202021 | 5 | 195 | 3.2 | 19.3 | 0.00 | 0.00 | 0.00 | 54 | 1005.3 |
| 20260503201541 | 5 | 189 | 6.4 | 19.3 | 0.00 | 0.00 | 0.00 | 53 | 1005.2 |
| 20260503201020 | 6 | 243 | 3.2 | 14.5 | 0.00 | 0.00 | 0.00 | 53 | 1005.2 |
| 20260503200521 | 6 | 263 | 1.6 | 19.3 | 0.00 | 0.00 | 0.00 | 54 | 1005.2 |
| 20260503200036 | 5 | 315 | 6.4 | 19.3 | 0.00 | 0.00 | 0.00 | 55 | 1005.2 |
| 20260503195519 | 5 | 217 | 3.2 | 16.1 | 0.00 | 0.00 | 0.00 | 54 | 1005.2 |
| 20260503195023 | 5 | 119 | 3.2 | 12.9 | 0.00 | 0.00 | 0.00 | 54 | 1005.4 |
| 20260503194542 | 5 | 149 | 1.6 | 14.5 | 0.00 | 0.00 | 0.00 | 54 | 1005.4 |
| 20260503194022 | 5 | 205 | 1.6 | 14.5 | 0.00 | 0.00 | 0.00 | 55 | 1005.4 |
| 20260503193522 | 4 | 137 | 1.6 | 8.0 | 0.00 | 0.00 | 0.00 | 56 | 1005.5 |
| 20260503193034 | 4 | 215 | 1.6 | 8.0 | 0.00 | 0.00 | 0.00 | 56 | 1005.6 |
| 20260503192519 | 4 | 259 | 0.0 | 8.0 | 0.00 | 0.00 | 0.00 | 56 | 1005.6 |
| 20260503192019 | 4 | 229 | 1.6 | 33.8 | 0.00 | 0.00 | 0.00 | 57 | 1005.7 |
| 20260503191538 | 3 | 198 | 3.2 | 33.8 | 0.00 | 0.00 | 0.00 | 56 | 1005.6 |
| 20260503191021 | 4 | 229 | 6.4 | 19.3 | 0.00 | 0.00 | 0.00 | 55 | 1005.6 |
| 20260503190519 | 4 | 279 | 6.4 | 17.7 | 0.00 | 0.00 | 0.00 | 55 | 1005.6 |
| 20260503190045 | 4 | 273 | 3.2 | 19.3 | 0.00 | 0.00 | 0.00 | 55 | 1005.6 |
| 20260503185523 | 4 | 229 | 3.2 | 19.3 | 0.00 | 0.00 | 0.00 | 55 | 1005.7 |
| 20260503185024 | 4 | 158 | 4.8 | 19.3 | 0.00 | 0.00 | 0.00 | 55 | 1005.6 |
| 20260503184536 | 4 | 278 | 1.6 | 17.7 | 0.00 | 0.00 | 0.00 | 57 | 1005.7 |
| 20260503184021 | 3 | 253 | 3.2 | 17.7 | 0.00 | 0.00 | 0.00 | 58 | 1005.7 |
| 20260503183520 | 3 | 217 | 1.6 | 11.3 | 0.00 | 0.00 | 0.00 | 58 | 1005.7 |
| 20260503183040 | 3 | 149 | 1.6 | 22.5 | 0.00 | 0.00 | 0.00 | 57 | 1005.7 |
| 20260503182520 | 3 | 147 | 3.2 | 22.5 | 0.00 | 0.00 | 0.00 | 57 | 1005.6 |
| 20260503182019 | 3 | 221 | 4.8 | 30.6 | 0.00 | 0.00 | 0.00 | 57 | 1005.7 |
| 20260503181554 | 4 | 207 | 8.0 | 30.6 | 0.00 | 0.00 | 0.00 | 55 | 1005.6 |
| 20260503181021 | 4 | 167 | 6.4 | 27.4 | 0.00 | 0.00 | 0.00 | 53 | 1005.5 |
| 20260503180520 | 5 | 171 | 1.6 | 11.3 | 0.00 | 0.00 | 0.00 | 52 | 1005.6 |
| 20260503180045 | 5 | 188 | 1.6 | 16.1 | 0.00 | 0.00 | 0.00 | 53 | 1005.6 |
| 20260503175522 | 5 | 232 | 1.6 | 20.9 | 0.00 | 0.00 | 0.00 | 54 | 1005.5 |
| 20260503175022 | 4 | 115 | 4.8 | 20.9 | 0.00 | 0.00 | 0.00 | 56 | 1005.6 |
| 20260503174541 | 3 | 213 | 1.6 | 22.5 | 0.00 | 0.00 | 0.00 | 56 | 1005.6 |
| 20260503174025 | 3 | 175 | 3.2 | 22.5 | 0.00 | 0.00 | 0.00 | 56 | 1005.5 |
| 20260503173520 | 3 | 136 | 3.2 | 22.5 | 0.00 | 0.00 | 0.00 | 57 | 1005.5 |
| 20260503173040 | 3 | 171 | 1.6 | 19.3 | 0.00 | 0.00 | 0.00 | 56 | 1005.6 |
| 20260503172519 | 4 | 213 | 1.6 | 19.3 | 0.00 | 0.00 | 0.00 | 55 | 1005.7 |
| 20260503172020 | 4 | 163 | 1.6 | 29.0 | 0.00 | 0.00 | 0.00 | 53 | 1005.6 |
| 20260503171536 | 5 | 234 | 4.8 | 29.0 | 0.00 | 0.00 | 0.00 | 51 | 1005.6 |
| 20260503171022 | 5 | 213 | 8.0 | 32.2 | 0.00 | 0.00 | 0.00 | 48 | 1005.2 |
| 20260503170522 | 6 | 229 | 8.0 | 32.2 | 0.00 | 0.00 | 0.00 | 48 | 1005.4 |